This is the latest recevied weather packets stored in our database for station/object W0PE-1. If no packets are shown the sender has not sent any weather packets the latest 10 day(s).
| Time | Temp. | Humidity | Pressure | Rain* | Wind** | Luminosity | Snow |
|---|---|---|---|---|---|---|---|
| 1778203854 | 22.78° C | 63% | 1012.7 hPa | 0 mm | - | - | - |
| 1778202967 | 22.78° C | 62% | 1012.8 hPa | 0 mm | - | - | - |
| 1778202053 | 23.33° C | 62% | 1012.8 hPa | 0 mm | - | - | - |
| 1778201158 | 23.33° C | 61% | 1012.7 hPa | 0 mm | - | - | - |
| 1778200252 | 23.33° C | 60% | 1012.8 hPa | 0 mm | - | - | - |
| 1778199352 | 23.89° C | 60% | 1012.7 hPa | 0 mm | - | - | - |
| 1778198450 | 23.89° C | 61% | 1012.7 hPa | 0 mm | - | - | - |
| 1778197555 | 23.89° C | 59% | 1012.8 hPa | 0 mm | - | - | - |
| 1778196648 | 24.44° C | 58% | 1012.8 hPa | 0 mm | - | - | - |
| 1778195751 | 24.44° C | 57% | 1012.8 hPa | 0 mm | - | - | - |
| 1778194848 | 24.44° C | 57% | 1012.9 hPa | 0 mm | - | - | - |
| 1778193948 | 25° C | 57% | 1012.9 hPa | 0 mm | - | - | - |
| 1778193048 | 25° C | 56% | 1013 hPa | 0 mm | - | - | - |
| 1778192143 | 25° C | 56% | 1013.1 hPa | 0 mm | - | - | - |
| 1778191242 | 25.56° C | 54% | 1013.3 hPa | 0 mm | - | - | - |
| 1778190340 | 25° C | 56% | 1013.5 hPa | 0 mm | - | - | - |
| 1778189446 | 25° C | 56% | 1013.7 hPa | 0 mm | - | - | - |
| 1778188539 | 25° C | 56% | 1013.6 hPa | 0 mm | - | - | - |
| 1778187641 | 25.56° C | 56% | 1013.8 hPa | 0 mm | - | - | - |
| 1778186739 | 25.56° C | 55% | 1014 hPa | 0 mm | - | - | - |
| 1778185841 | 25.56° C | 56% | 1013.9 hPa | 0 mm | - | - | - |
| 1778184937 | 25.56° C | 56% | 1014.1 hPa | 0 mm | - | - | - |
| 1778184033 | 26.11° C | 56% | 1014.2 hPa | 0 mm | - | - | - |
| 1778183133 | 26.11° C | 54% | 1014.4 hPa | 0 mm | - | - | - |
| 1778182230 | 25.56° C | 56% | 1014.4 hPa | 0 mm | - | - | - |
* Rain latest hour (hover to see other rain measurements)
** Current wind speed in m/s (hover to see current wind gust speed)